Regional Weather Roundup
Issued by NWS

Home | Current Version | Previous Version | Graphics & Text | Print | Product List | Glossary On
Versions: 1 2 3 4 5 6 7 8 9 10 11 12 13 14 15 16 17 18 19 20 21 22 23 24 25 26 27 28 29 30 31 32 33 34 35 36 37 38 39 40 41 42 43 44 45 46 47 48 49 50
794
ASUS43 KIND 161900
RWRIN

WEATHER ROUNDUP FOR INDIANA
NATIONAL WEATHER SERVICE INDIANAPOLIS IN
300 PM EDT WED AUG 16 2017

NOTE: "FAIR" INDICATES FEW OR NO CLOUDS BELOW 12,000 FEET WITH NO
SIGNIFICANT WEATHER AND/OR OBSTRUCTIONS TO VISIBILITY.

* - STATION DOES NOT REPORT WEATHER SUCH AS PRECIPITATION OR FOG.

+ - STATION NOT QUALITY CONTROLLED BY THE NATIONAL WEATHER SERVICE.
    USE DATA WITH CAUTION...ESPECIALLY DEWPOINT AND RELATIVE
    HUMIDITY OBSERVATIONS.

INZ001>003-010>013-019-020-162000-
NORTHWEST INDIANA

CITY           SKY/WX    TMP DP  RH WIND       PRES   REMARKS
GARY /AIRPORT/ MOSUNNY   90  64  43 S9        29.96F
MICHIGAN CITY+ PTSUNNY   86  68  54 S3        29.98F
MONTICELLO +   SUNNY     87  67  51 S8        29.98F
RENSSELAER +   MOSUNNY   86  64  48 SE10      29.98S

$$

LMZ046-743>745-162000-
SOUTHERN LAKE MICHIGAN

STATION/POSITION TIME  TEMP    WIND        PRES    WAVE
                       AIR SEA DIR/SP/G            HT
                 (UTC) (F)     (DEG/KT/KT) (MB)    (FT)
BURNS HARBOR     1840   78      30/  8/ 11 1014.9F
MICHIGAN CITY    1830   82     340/  2/  5   N/A
5NW MICH CITY    1850   77 76   50/  6/  8   N/A     1

$$

INZ004-005-014>016-021>024-162000-
NORTH CENTRAL INDIANA

CITY           SKY/WX    TMP DP  RH WIND       PRES   REMARKS
ELKHART        MOSUNNY   86  64  48 S9        29.99F
GOSHEN         PTSUNNY   86  66  51 S8        30.00F
SOUTH BEND     CLOUDY    84  69  60 S7        29.99F
WARSAW +       MOSUNNY   86  68  54 S7        30.00F

$$

INZ006>009-017-018-025>027-162000-
NORTHEAST INDIANA

CITY           SKY/WX    TMP DP  RH WIND       PRES   REMARKS
FORT WAYNE     PTSUNNY   88  65  46 SE10      30.01F
KENDALLVILLE + MOSUNNY   85  67  54 S5        30.03F

$$

INZ028-029-035-036-043>045-051>053-162000-
WEST CENTRAL INDIANA

CITY           SKY/WX    TMP DP  RH WIND       PRES   REMARKS
LAFAYETTE      CLOUDY    85  72  65 S8        29.97F
TERRE HAUTE    CLOUDY    84  72  67 S9        30.00S

$$

INZ030>032-037>040-046>048-054>057-064-065-162000-
CENTRAL INDIANA

CITY           SKY/WX    TMP DP  RH WIND       PRES   REMARKS
GREENWOOD *+   CLOUDY    86  68  55 S6        30.01F
INDIANAPOLIS   CLOUDY    86  68  54 S10       29.99F
-EAGLE CREEK   CLOUDY    87  67  51 SW6       29.99F
KOKOMO +       MOSUNNY   86  72  62 S8        30.01F
MT COMFORT *+  CLOUDY    86  68  54 SW6       30.02F
SHELBYVILLE    SUNNY     88  70  55 S7        30.00F

$$

INZ033-034-041-042-049-050-058-059-162000-
EAST CENTRAL INDIANA

CITY           SKY/WX    TMP DP  RH WIND       PRES   REMARKS
MUNCIE         MOSUNNY   90  65  43 SW8       30.01F
RICHMOND +     SUNNY     84  70  61 S6        30.05S

$$

INZ060-061-067>069-081>083-085>088-162000-
SOUTHWEST INDIANA

CITY           SKY/WX    TMP DP  RH WIND       PRES   REMARKS
EVANSVILLE     CLOUDY    85  73  67 VRB5      29.99F
HUNTINGBURG +  CLOUDY    84  74  71 SW6       30.01S

$$

INZ062-063-066-070>080-084-089>092-162000-
SOUTH CENTRAL AND SOUTHEAST INDIANA

CITY           SKY/WX    TMP DP  RH WIND       PRES   REMARKS
BLOOMINGTON    CLOUDY    86  69  56 S7        30.01S
MADISON *+     SUNNY     88  66  48 S7        30.03F
SEYMOUR +      SUNNY     91  68  46 CALM      30.00F HX  95

$$





USA.gov is the U.S. government's official web portal to all federal, state and local government web resources and services.